Regional Weather Roundup
Issued by NWS Bismarck, ND

Home | Current Version | Previous Version | Text Only | Print | Product List | Glossary On
Versions: 1 2 3 4 5 6 7 8 9 10 11 12 13 14 15 16 17 18 19 20 21 22 23 24 25 26 27 28 29 30 31 32 33 34 35 36 37 38 39 40 41 42 43 44 45 46 47 48 49 50
000
ASUS43 KBIS 141059
RWRBIS

NWR BROADCAST TEXT
NATIONAL WEATHER SERVICE BISMARCK ND
600 AM CDT MON JUL 14 2014

NOTE: "FAIR" INDICATES FEW OR NO CLOUDS BELOW 12,000 FEET WITH NO
SIGNIFICANT WEATHER AND/OR OBSTRUCTIONS TO VISIBILITY.


CITY           SKY/WX    TMP DP  RH WIND       PRES   REMARKS
WILLISTON      CLEAR     48  44  86 N6        30.28R
MINOT          PTCLDY    50  46  86 NW12      30.21R
MINOT AFB      NOT AVBL
BISMARCK       MOCLDY    54  47  77 NW12      30.19R
DICKINSON      CLEAR     48  44  86 N7        30.25R
GARRISON         N/A     48  46  93 NW9       30.21R
HETTINGER ARPT CLEAR     44  41  89 W3        30.26R
JAMESTOWN      NOT AVBL
MANDAN         CLOUDY    50  46  87 NW10      30.20R
$$

CITY           SKY/WX    TMP DP  RH WIND       PRES   REMARKS
GRAND FORKS    PTCLDY    48  45  89 NW14      30.05R
GRAND FORKS AF NOT AVBL
DEVILS LAKE    CLOUDY    50  45  81 N14       30.10R
FARGO          PTCLDY    50  45  83 N18       30.03R
GWINNER        PTSUNNY   57  46  67 N14G20    30.07R
$$

CITY           SKY/WX    TMP DP  RH WIND       PRES   REMARKS
ABERDEEN       CLEAR     51  46  83 NW10      30.09R
MOBRIDGE       CLEAR     52  48  86 N8        30.15R
BUFFALO          N/A     48  41  76 N14       30.21R
RAPID CITY     PTCLDY    53  45  74 N8        30.24R
GLASGOW        CLEAR     46  43  89 NW3       30.32R
SIDNEY         PTCLDY    52  45  76 NW6       30.31R
WOLF POINT     CLEAR     45  41  86 CALM      30.32R
GLENDIVE       CLEAR     46  41  81 NW7       30.32R
MILES CITY     CLEAR     52  40  63 NE10      30.30R
BAKER          CLEAR     45  40  82 W6        30.31R
$$

CITY           SKY/WX    TMP DP  RH WIND       PRES   REMARKS
BILLINGS       PTCLDY    60  44  55 NE10      30.30R
GREAT FALLS    PTCLDY    63  50  62 E9        30.27R
$$




USA.gov is the U.S. government's official web portal to all federal, state and local government web resources and services.